| time (UTC) | temp F | wind direction | speed MPH | gust MPH | rain 1hr in | rain 24hr in | rain mn in | humidity % | barometer mb |
| 20260503050032 | 44 | 33 | 0.0 | 0.0 | 0.00 | 0.01 | 0.00 | 80 | 1013.7 |
| 20260503044532 | 44 | 33 | 0.0 | 0.0 | 0.00 | 0.01 | 0.00 | 78 | 1013.8 |
| 20260503043029 | 44 | 33 | 0.0 | 0.0 | 0.00 | 0.01 | 0.00 | 78 | 1013.8 |
| 20260503041527 | 45 | 33 | 0.0 | 0.0 | 0.00 | 0.01 | 0.00 | 78 | 1013.6 |
| 20260503040034 | 45 | 33 | 0.0 | 0.0 | 0.00 | 0.01 | 0.01 | 78 | 1013.5 |
| 20260503034524 | 45 | 33 | 0.0 | 0.0 | 0.00 | 0.01 | 0.01 | 77 | 1013.4 |
| 20260503033028 | 46 | 33 | 0.0 | 0.0 | 0.00 | 0.01 | 0.01 | 76 | 1013.3 |
| 20260503031520 | 46 | 33 | 0.0 | 0.0 | 0.00 | 0.01 | 0.01 | 76 | 1013.1 |
| 20260503030019 | 47 | 33 | 0.0 | 0.0 | 0.00 | 0.01 | 0.01 | 76 | 1013.1 |
| 20260503024515 | 47 | 33 | 0.0 | 0.0 | 0.00 | 0.01 | 0.01 | 77 | 1013.0 |
| 20260503023014 | 48 | 33 | 0.0 | 0.0 | 0.00 | 0.01 | 0.01 | 77 | 1012.8 |
| 20260503021515 | 48 | 33 | 0.0 | 0.0 | 0.00 | 0.01 | 0.01 | 73 | 1012.5 |
| 20260503020012 | 48 | 33 | 0.0 | 0.0 | 0.00 | 0.01 | 0.01 | 70 | 1012.8 |
| 20260503014513 | 48 | 33 | 0.0 | 0.0 | 0.00 | 0.01 | 0.01 | 70 | 1012.9 |
| 20260503013008 | 49 | 33 | 0.0 | 0.0 | 0.00 | 0.01 | 0.01 | 69 | 1012.7 |
| 20260503011505 | 50 | 33 | 0.0 | 0.0 | 0.00 | 0.01 | 0.01 | 69 | 1012.4 |
| 20260503010003 | 50 | 33 | 0.0 | 0.0 | 0.00 | 0.01 | 0.01 | 69 | 1012.2 |
| 20260503004500 | 51 | 33 | 0.0 | 0.0 | 0.00 | 0.01 | 0.01 | 68 | 1011.9 |
| 20260503003102 | 52 | 33 | 0.0 | 0.0 | 0.00 | 0.01 | 0.01 | 67 | 1011.7 |
| 20260503001600 | 53 | 33 | 0.0 | 0.0 | 0.00 | 0.01 | 0.01 | 67 | 1011.5 |
| 20260503000059 | 53 | 165 | 0.0 | 0.0 | 0.00 | 0.01 | 0.01 | 67 | 1011.2 |
| 20260502234604 | 54 | 157 | 0.0 | 0.0 | 0.00 | 0.01 | 0.01 | 67 | 1011.0 |
| 20260502233059 | 54 | 157 | 0.0 | 0.0 | 0.00 | 0.01 | 0.01 | 65 | 1010.9 |
| 20260502231610 | 54 | 157 | 0.0 | 0.0 | 0.00 | 0.01 | 0.01 | 65 | 1010.9 |
| 20260502230058 | 54 | 157 | 0.0 | 2.0 | 0.00 | 0.01 | 0.01 | 65 | 1010.7 |
| 20260502224600 | 54 | 158 | 0.0 | 2.0 | 0.00 | 0.01 | 0.01 | 64 | 1010.8 |
| 20260502223057 | 55 | 112 | 0.0 | 0.0 | 0.00 | 0.01 | 0.01 | 64 | 1010.7 |
| 20260502221556 | 55 | 112 | 0.0 | 1.0 | 0.00 | 0.01 | 0.01 | 64 | 1010.8 |
| 20260502220057 | 55 | 360 | 0.0 | 3.0 | 0.00 | 0.01 | 0.01 | 63 | 1010.6 |
| 20260502214556 | 55 | 93 | 0.0 | 3.0 | 0.00 | 0.01 | 0.01 | 64 | 1010.4 |
| 20260502213106 | 55 | 93 | 0.0 | 2.0 | 0.00 | 0.01 | 0.01 | 63 | 1010.5 |
| 20260502211555 | 56 | 92 | 0.0 | 3.0 | 0.00 | 0.01 | 0.01 | 63 | 1010.4 |
| 20260502210054 | 56 | 167 | 1.0 | 6.0 | 0.00 | 0.01 | 0.01 | 62 | 1010.5 |
| 20260502204602 | 55 | 133 | 1.0 | 6.0 | 0.00 | 0.01 | 0.01 | 63 | 1010.6 |
| 20260502203053 | 55 | 119 | 1.0 | 6.0 | 0.00 | 0.01 | 0.01 | 63 | 1010.6 |
| 20260502201553 | 56 | 140 | 2.0 | 9.0 | 0.00 | 0.01 | 0.01 | 62 | 1010.6 |
| 20260502200052 | 56 | 50 | 2.0 | 9.0 | 0.00 | 0.01 | 0.01 | 64 | 1010.5 |
| 20260502194551 | 56 | 88 | 2.0 | 7.0 | 0.00 | 0.01 | 0.01 | 63 | 1010.7 |
| 20260502193052 | 55 | 82 | 4.0 | 11.0 | 0.00 | 0.01 | 0.01 | 64 | 1011.0 |
| 20260502191550 | 55 | 32 | 3.0 | 9.0 | 0.00 | 0.01 | 0.01 | 64 | 1011.2 |
| 20260502190048 | 55 | 67 | 4.0 | 9.0 | 0.00 | 0.01 | 0.01 | 67 | 1011.1 |
| 20260502184555 | 54 | 71 | 3.0 | 6.0 | 0.00 | 0.01 | 0.01 | 67 | 1011.2 |
| 20260502183044 | 54 | 37 | 2.0 | 7.0 | 0.00 | 0.01 | 0.01 | 70 | 1011.3 |
| 20260502181544 | 54 | 47 | 2.0 | 7.0 | 0.00 | 0.01 | 0.01 | 71 | 1011.5 |
| 20260502163036 | 52 | 57 | 3.0 | 7.0 | 0.00 | 0.01 | 0.01 | 71 | 1012.1 |
| 20260502161535 | 52 | 67 | 3.0 | 9.0 | 0.00 | 0.01 | 0.01 | 70 | 1012.6 |
| 20260502151530 | 53 | 40 | 6.0 | 10.0 | 0.00 | 0.01 | 0.01 | 71 | 1012.3 |
| 20260502123017 | 51 | 344 | 2.0 | 5.0 | 0.00 | 0.00 | 0.00 | 69 | 1011.2 |
| 20260502121533 | 51 | 17 | 3.0 | 6.0 | 0.00 | 0.00 | 0.00 | 69 | 1011.0 |
| 20260502114515 | 52 | 11 | 2.0 | 4.0 | 0.00 | 0.00 | 0.00 | 67 | 1011.2 |
| 20260502113015 | 52 | 5 | 1.0 | 6.0 | 0.00 | 0.00 | 0.00 | 67 | 1011.1 |
| 20260502111514 | 52 | 15 | 2.0 | 5.0 | 0.00 | 0.00 | 0.00 | 66 | 1011.4 |
| 20260502110016 | 52 | 355 | 2.0 | 6.0 | 0.00 | 0.00 | 0.00 | 66 | 1011.6 |
| 20260502104513 | 53 | 340 | 2.0 | 5.0 | 0.00 | 0.00 | 0.00 | 67 | 1011.6 |
| 20260502103012 | 53 | 24 | 2.0 | 5.0 | 0.00 | 0.00 | 0.00 | 68 | 1011.5 |
| 20260502101513 | 53 | 333 | 4.0 | 8.0 | 0.00 | 0.00 | 0.00 | 68 | 1011.4 |
| 20260502091509 | 52 | 327 | 1.0 | 3.0 | 0.00 | 0.00 | 0.00 | 74 | 1011.4 |
| 20260502071502 | 52 | 144 | 0.0 | 0.0 | 0.00 | 0.00 | 0.00 | 74 | 1010.3 |
| 20260502070101 | 52 | 144 | 0.0 | 0.0 | 0.00 | 0.01 | 0.00 | 73 | 1010.4 |
| 20260502064603 | 52 | 144 | 0.0 | 0.0 | 0.00 | 0.01 | 0.00 | 73 | 1010.6 |
| 20260502063100 | 52 | 144 | 0.0 | 0.0 | 0.00 | 0.01 | 0.00 | 73 | 1010.8 |
| 20260502061556 | 52 | 144 | 0.0 | 0.0 | 0.00 | 0.01 | 0.00 | 72 | 1010.9 |
| 20260502060055 | 52 | 144 | 0.0 | 0.0 | 0.00 | 0.01 | 0.00 | 72 | 1011.0 |
| 20260502054601 | 52 | 144 | 0.0 | 0.0 | 0.00 | 0.01 | 0.00 | 71 | 1011.0 |
| 20260502053052 | 52 | 144 | 0.0 | 0.0 | 0.00 | 0.01 | 0.00 | 71 | 1011.3 |
| 20260502051548 | 52 | 144 | 0.0 | 0.0 | 0.00 | 0.01 | 0.00 | 71 | 1011.4 |